Wendover, UT

5:28 AM MDT on May 27, 2017 (GMT -0600)
Wendover

Weather History for KENV - September, 2013

Change the Weather History Date:

Wednesday, September 25, 2013

  Actual Average Record
Temperature  
Mean Temperature 58 °F -  
Max Temperature 64 °F 72 °F 93 °F (2001)
Min Temperature 51 °F 50 °F 35 °F (1934)
Degree Days  
Heating Degree Days 8    
Growing Degree Days 8 (Base 50)    
Moisture  
Dew Point 28 °F    
Average Humidity 34    
Maximum Humidity 51    
Minimum Humidity 20    
Precipitation  
Precipitation 0.00 in - - ()
Sea Level Pressure  
Sea Level Pressure 29.70 in    
Wind  
Wind Speed 11 mph (WNW)    
Max Wind Speed 29 mph    
Max Gust Speed 33 mph    
Visibility 10 miles    
Events      
Averages and records for this station are not official NWS values.
T = Trace of Precipitation, MM = Missing Value Source: NWS Daily Summary

Daily Weather History Graph

Daily Weather History Graph

Search for Another Location

Airport or City:

Trip Planner

Search our weather history database for the weather conditions in past years. The results will help you decide how hot, cold, wet, or windy it might be!

Date:

Astronomy

Sep. 25, 2013 Rise Set
Actual Time 7:26 AM MDT 7:27 PM MDT
Civil Twilight 6:59 AM MDT 7:54 PM MDT
Nautical Twilight 6:27 AM MDT 8:26 PM MDT
Astronomical Twilight 5:55 AM MDT 8:59 PM MDT
Moon 11:35 PM MDT (9/25) 1:37 PM MDT (9/25)
Length of Visible Light 12h 55m
Length of Day
12h 00m
Waning Gibbous, 63% of the Moon is Illuminated
Sep 25
Waning Gibbous
Sep 26
Last Quarter
Oct 4
New
Oct 11
First Quarter
Oct 18
Full

Hourly Weather History & Observations

Time (MDT) Temp. Dew Point Humidity Pressure Visibility Wind Dir Wind Speed Gust Speed Precip Events Conditions
12:15 AM 64.4 °F 33.8 °F 32% 29.69 in 10.0 mi South 6.9 mph 20.7 mph N/A   Partly Cloudy
12:35 AM 62.6 °F 35.6 °F 37% 29.72 in 10.0 mi NNW 6.9 mph - N/A   Scattered Clouds
12:55 AM 64.4 °F 35.6 °F 34% 29.68 in 10.0 mi West 11.5 mph 19.6 mph N/A   Scattered Clouds
1:15 AM 62.6 °F 35.6 °F 37% 29.67 in 10.0 mi South 5.8 mph - N/A   Partly Cloudy
1:35 AM 60.8 °F 37.4 °F 42% 29.67 in 10.0 mi East 13.8 mph - N/A   Clear
1:55 AM 59.0 °F 37.4 °F 45% 29.67 in 10.0 mi NNE 6.9 mph - N/A   Clear
2:15 AM 59.0 °F 37.4 °F 45% 29.69 in 10.0 mi Calm Calm - N/A   Clear
2:35 AM 57.2 °F 37.4 °F 48% 29.69 in 10.0 mi WNW 9.2 mph - N/A   Clear
2:55 AM 57.2 °F 37.4 °F 48% 29.69 in 10.0 mi WNW 15.0 mph - N/A   Mostly Cloudy
3:15 AM 57.2 °F 37.4 °F 48% 29.68 in 10.0 mi WNW 13.8 mph - N/A   Partly Cloudy
3:35 AM 57.2 °F 37.4 °F 48% 29.68 in 10.0 mi West 4.6 mph - N/A   Clear
4:15 AM 57.2 °F 37.4 °F 48% 29.65 in 10.0 mi NE 4.6 mph - N/A   Scattered Clouds
4:35 AM 57.2 °F 35.6 °F 44% 29.66 in 10.0 mi WNW 8.1 mph 18.4 mph N/A   Scattered Clouds
4:55 AM 55.4 °F 35.6 °F 47% 29.65 in 10.0 mi North 6.9 mph - N/A   Mostly Cloudy
5:15 AM 55.4 °F 35.6 °F 47% 29.64 in 10.0 mi NNE 10.4 mph 20.7 mph N/A   Mostly Cloudy
5:35 AM 55.4 °F 35.6 °F 47% 29.64 in 10.0 mi WNW 3.5 mph - N/A   Scattered Clouds
5:55 AM 55.4 °F 35.6 °F 47% 29.63 in 10.0 mi NNW 3.5 mph - N/A   Mostly Cloudy
6:15 AM 55.4 °F 35.6 °F 47% 29.63 in 10.0 mi West 4.6 mph - N/A   Scattered Clouds
6:35 AM 55.4 °F 35.6 °F 47% 29.64 in 10.0 mi South 4.6 mph - N/A   Mostly Cloudy
6:55 AM 55.4 °F 35.6 °F 47% 29.62 in 10.0 mi North 5.8 mph - N/A   Overcast
7:15 AM 55.4 °F 35.6 °F 47% 29.64 in 10.0 mi West 4.6 mph - N/A   Scattered Clouds
7:35 AM 53.6 °F 35.6 °F 51% 29.65 in 10.0 mi SSW 3.5 mph - N/A   Clear
7:55 AM 53.6 °F 35.6 °F 51% 29.65 in 10.0 mi Calm Calm - N/A   Clear
8:15 AM 55.4 °F 35.6 °F 47% 29.66 in 10.0 mi WSW 5.8 mph - N/A   Mostly Cloudy
8:35 AM 55.4 °F 33.8 °F 44% 29.68 in 10.0 mi NNW 15.0 mph 23.0 mph N/A   Scattered Clouds
8:55 AM 53.6 °F 33.8 °F 47% 29.68 in 10.0 mi WNW 17.3 mph - N/A   Scattered Clouds
9:15 AM 55.4 °F 33.8 °F 44% 29.68 in 10.0 mi WNW 10.4 mph - N/A   Partly Cloudy
9:35 AM 55.4 °F 33.8 °F 44% 29.68 in 10.0 mi WNW 13.8 mph - N/A   Mostly Cloudy
9:55 AM 53.6 °F 30.2 °F 41% 29.69 in 10.0 mi WNW 15.0 mph - N/A   Partly Cloudy
10:15 AM 55.4 °F 30.2 °F 38% 29.70 in 10.0 mi WNW 12.7 mph - N/A   Clear
10:35 AM 55.4 °F 30.2 °F 38% 29.70 in 10.0 mi WNW 12.7 mph 16.1 mph N/A   Clear
10:55 AM 57.2 °F 26.6 °F 31% 29.70 in 10.0 mi West 18.4 mph - N/A   Clear
11:15 AM 59.0 °F 24.8 °F 27% 29.70 in 10.0 mi WNW 20.7 mph 24.2 mph N/A   Clear
11:35 AM 60.8 °F 24.8 °F 25% 29.69 in 10.0 mi WNW 19.6 mph - N/A   Clear
11:55 AM 60.8 °F 23.0 °F 23% 29.70 in 10.0 mi WNW 21.9 mph 25.3 mph N/A   Clear
12:15 PM 60.8 °F 21.2 °F 22% 29.69 in 10.0 mi WNW 20.7 mph 25.3 mph N/A   Clear
12:35 PM 60.8 °F 21.2 °F 22% 29.69 in 10.0 mi West 19.6 mph 24.2 mph N/A   Clear
12:55 PM 62.6 °F 23.0 °F 22% 29.69 in 10.0 mi West 19.6 mph 23.0 mph N/A   Clear
1:15 PM 60.8 °F 21.2 °F 22% 29.69 in 10.0 mi WNW 17.3 mph 29.9 mph N/A   Clear
1:55 PM 62.6 °F 21.2 °F 20% 29.69 in 10.0 mi WNW 24.2 mph 31.1 mph N/A   Clear
2:15 PM 62.6 °F 23.0 °F 22% 29.70 in 10.0 mi West 24.2 mph 29.9 mph N/A   Clear
2:35 PM 60.8 °F 24.8 °F 25% 29.70 in 10.0 mi West 19.6 mph 29.9 mph N/A   Clear
2:55 PM 62.6 °F 23.0 °F 22% 29.69 in 10.0 mi West 15.0 mph 21.9 mph N/A   Clear
3:15 PM 62.6 °F 21.2 °F 20% 29.69 in 10.0 mi WNW 21.9 mph 27.6 mph N/A   Clear
3:35 PM 62.6 °F 23.0 °F 22% 29.69 in 10.0 mi West 16.1 mph 25.3 mph N/A   Clear
4:15 PM 62.6 °F 21.2 °F 20% 29.67 in 10.0 mi WNW 20.7 mph 26.5 mph N/A   Clear
4:35 PM 62.6 °F 21.2 °F 20% 29.68 in 10.0 mi NW 21.9 mph 27.6 mph N/A   Clear
4:55 PM 62.6 °F 21.2 °F 20% 29.69 in 10.0 mi West 28.8 mph 32.2 mph N/A   Clear
5:15 PM 60.8 °F 19.4 °F 20% 29.69 in 10.0 mi WNW 25.3 mph 33.4 mph N/A   Clear
5:35 PM 60.8 °F 21.2 °F 22% 29.70 in 10.0 mi WNW 26.5 mph 31.1 mph N/A   Clear
5:55 PM 59.0 °F 21.2 °F 23% 29.71 in 10.0 mi WNW 23.0 mph 26.5 mph N/A   Clear
6:15 PM 59.0 °F 19.4 °F 22% 29.71 in 10.0 mi WNW 18.4 mph 26.5 mph N/A   Clear
6:35 PM 57.2 °F 19.4 °F 23% 29.72 in 10.0 mi WNW 23.0 mph 26.5 mph N/A   Clear
6:55 PM 55.4 °F 17.6 °F 23% 29.72 in 10.0 mi WNW 21.9 mph 28.8 mph N/A   Clear
7:15 PM 55.4 °F 17.6 °F 23% 29.72 in 10.0 mi WNW 20.7 mph - N/A   Clear
7:35 PM 55.4 °F 17.6 °F 23% 29.72 in 10.0 mi WNW 17.3 mph - N/A   Clear
7:55 PM 53.6 °F 17.6 °F 24% 29.72 in 10.0 mi WNW 15.0 mph - N/A   Clear
8:15 PM 53.6 °F 21.2 °F 28% 29.74 in 10.0 mi NW 13.8 mph - N/A   Mostly Cloudy
8:35 PM 53.6 °F 21.2 °F 28% 29.74 in 10.0 mi NW 15.0 mph - N/A   Overcast
8:55 PM 53.6 °F 23.0 °F 30% 29.75 in 10.0 mi NW 15.0 mph 20.7 mph N/A   Overcast
9:15 PM 53.6 °F 23.0 °F 30% 29.76 in 10.0 mi North 5.8 mph 17.3 mph N/A   Overcast
9:35 PM 51.8 °F 24.8 °F 35% 29.75 in 10.0 mi NE 15.0 mph 18.4 mph N/A   Overcast
9:55 PM 51.8 °F 24.8 °F 35% 29.77 in 10.0 mi NNE 8.1 mph - N/A   Overcast
10:15 PM 51.8 °F 23.0 °F 33% 29.77 in 10.0 mi NNE 6.9 mph - N/A   Overcast
10:35 PM 51.8 °F 21.2 °F 30% 29.78 in 10.0 mi NNE 6.9 mph - N/A   Overcast
10:55 PM 51.8 °F 21.2 °F 30% 29.78 in 10.0 mi NNW 5.8 mph - N/A   Overcast
11:15 PM 51.8 °F 21.2 °F 30% 29.77 in 10.0 mi North 9.2 mph - N/A   Overcast
11:35 PM 51.8 °F 21.2 °F 30% 29.77 in 10.0 mi NW 9.2 mph - N/A   Overcast
11:55 PM 51.8 °F 21.2 °F 30% 29.77 in 10.0 mi NNW 10.4 mph - N/A   Overcast